Location: Waco, TX
(31.5480°N, 97.1670°W)
Time: 22:24:43
(UTC-05:00)

ISS - Pass Details

Date: 14 September 2018
Orbit: 403 x 409 km, 51.6° (Epoch: 24 September)

Event Time Altitude Azimuth Distance (km) Brightness Sun altitude
Rises 00:01:50 0° 242° (WSW) 2,320 - -49.9°
Reaches altitude 10° 00:04:02 10° 252° (WSW) 1,462 - -50.1°
Maximum altitude 00:07:03 34° 319° (NW) 697 - -50.5°
Drops below altitude 10° 00:10:05 10° 27° (NNE) 1,465 - -50.8°
Sets 00:12:17 0° 37° (NE) 2,326 - -51.0°
